TimeCST,TemperatureF,Dew PointF,Humidity,Sea Level PressureIn,VisibilityMPH,Wind Direction,Wind SpeedMPH,Gust SpeedMPH,PrecipitationIn,Events,Conditions,WindDirDegrees,DateUTC
12:15 AM,69.8,35.6,28,29.85,5.0,WNW,23.0,35.7,0.01,,Haze,300,2012-12-20 06:15:00
12:35 AM,68.0,26.6,21,29.87,3.0,WNW,19.6,26.5,0.01,,Haze,300,2012-12-20 06:35:00
12:55 AM,68.0,8.6,10,29.89,4.0,WNW,20.7,29.9,0.01,,Haze,290,2012-12-20 06:55:00
1:35 AM,66.2,-7.6,5,29.93,3.0,WNW,26.5,35.7,N/A,,Haze,300,2012-12-20 07:35:00
1:55 AM,64.4,1.4,8,29.95,3.0,WNW,24.2,34.5,N/A,,Haze,300,2012-12-20 07:55:00
2:15 AM,62.6,3.2,9,29.97,5.0,WNW,24.2,31.1,N/A,,Haze,300,2012-12-20 08:15:00
2:35 AM,60.8,5.0,11,29.99,7.0,NW,23.0,32.2,N/A,,Overcast,310,2012-12-20 08:35:00
2:55 AM,59.0,10.4,15,30.02,10.0,NW,21.9,29.9,N/A,,Scattered Clouds,310,2012-12-20 08:55:00
3:15 AM,57.2,10.4,16,30.05,10.0,NW,31.1,36.8,N/A,,Clear,310,2012-12-20 09:15:00
3:35 AM,53.6,12.2,19,30.08,10.0,WNW,24.2,35.7,N/A,,Clear,300,2012-12-20 09:35:00
3:55 AM,51.8,15.8,24,30.10,10.0,WNW,21.9,32.2,N/A,,Clear,300,2012-12-20 09:55:00
4:15 AM,50.0,17.6,28,30.12,10.0,NW,19.6,25.3,N/A,,Clear,310,2012-12-20 10:15:00
4:35 AM,48.2,17.6,30,30.13,10.0,NW,13.8,24.2,N/A,,Clear,310,2012-12-20 10:35:00
4:55 AM,48.2,15.8,27,30.14,10.0,NW,17.3,23.0,N/A,,Clear,310,2012-12-20 10:55:00
5:15 AM,46.4,14.0,27,30.16,10.0,NW,17.3,27.6,N/A,,Clear,310,2012-12-20 11:15:00
5:35 AM,46.4,14.0,27,30.17,10.0,NW,17.3,34.5,N/A,,Clear,320,2012-12-20 11:35:00
5:55 AM,46.4,15.8,29,30.18,10.0,NW,25.3,33.4,N/A,,Clear,320,2012-12-20 11:55:00
6:15 AM,46.4,17.6,32,30.20,10.0,NW,21.9,32.2,N/A,,Clear,320,2012-12-20 12:15:00
6:35 AM,44.6,17.6,34,30.21,10.0,NW,19.6,28.8,N/A,,Clear,320,2012-12-20 12:35:00
6:55 AM,44.6,17.6,34,30.23,10.0,NW,21.9,31.1,N/A,,Clear,320,2012-12-20 12:55:00
7:15 AM,44.6,17.6,34,30.24,10.0,NW,17.3,27.6,N/A,,Clear,320,2012-12-20 13:15:00
7:35 AM,44.6,19.4,37,30.26,10.0,NW,16.1,24.2,N/A,,Clear,320,2012-12-20 13:35:00
7:55 AM,44.6,19.4,37,30.27,10.0,NW,13.8,24.2,N/A,,Clear,320,2012-12-20 13:55:00
8:15 AM,44.6,17.6,34,30.29,10.0,NW,16.1,19.6,N/A,,Clear,310,2012-12-20 14:15:00
8:35 AM,46.4,17.6,32,30.29,10.0,NW,15.0,21.9,N/A,,Clear,310,2012-12-20 14:35:00
8:55 AM,46.4,17.6,32,30.31,10.0,WNW,16.1,23.0,N/A,,Clear,300,2012-12-20 14:55:00
9:15 AM,48.2,14.0,25,30.32,10.0,NW,17.3,29.9,N/A,,Clear,310,2012-12-20 15:15:00
9:35 AM,50.0,14.0,24,30.34,10.0,NW,19.6,26.5,N/A,,Clear,320,2012-12-20 15:35:00
9:55 AM,50.0,14.0,24,30.36,10.0,NW,20.7,28.8,N/A,,Clear,310,2012-12-20 15:55:00
10:15 AM,51.8,12.2,21,30.37,10.0,NW,16.1,28.8,N/A,,Clear,310,2012-12-20 16:15:00
10:35 AM,51.8,10.4,19,30.37,10.0,NW,25.3,32.2,N/A,,Clear,320,2012-12-20 16:35:00
10:55 AM,51.8,8.6,18,30.37,10.0,NW,18.4,29.9,N/A,,Clear,320,2012-12-20 16:55:00
11:15 AM,53.6,-13.0,6,30.38,10.0,NNW,26.5,38.0,N/A,,Clear,330,2012-12-20 17:15:00
11:35 AM,53.6,-34.6,4,30.37,10.0,NW,27.6,36.8,N/A,,Clear,320,2012-12-20 17:35:00
11:55 AM,55.4,-9999,N/A,30.37,10.0,NNW,26.5,32.2,N/A,,Clear,330,2012-12-20 17:55:00
12:15 PM,55.4,-9999,N/A,30.37,10.0,NNW,28.8,38.0,N/A,,Clear,330,2012-12-20 18:15:00
12:35 PM,55.4,-9999,N/A,30.36,10.0,NNW,25.3,38.0,N/A,,Clear,340,2012-12-20 18:35:00
12:55 PM,55.4,-9999,N/A,30.35,10.0,NW,28.8,36.8,N/A,,Clear,320,2012-12-20 18:55:00
1:15 PM,55.4,-9999,N/A,30.35,10.0,NNW,20.7,34.5,N/A,,Clear,330,2012-12-20 19:15:00
1:35 PM,57.2,-9999,N/A,30.34,10.0,NNW,24.2,34.5,N/A,,Clear,330,2012-12-20 19:35:00
1:55 PM,59.0,-9999,N/A,30.34,10.0,NW,21.9,40.3,N/A,,Clear,320,2012-12-20 19:55:00
2:15 PM,57.2,-9999,N/A,30.34,10.0,NW,25.3,34.5,N/A,,Clear,320,2012-12-20 20:15:00
2:35 PM,59.0,-9999,N/A,30.34,10.0,NNW,20.7,25.3,N/A,,Clear,340,2012-12-20 20:35:00
2:55 PM,59.0,-9999,N/A,30.35,10.0,NNW,24.2,28.8,N/A,,Clear,330,2012-12-20 20:55:00
3:15 PM,59.0,-9999,N/A,30.35,10.0,NNW,20.7,29.9,N/A,,Clear,340,2012-12-20 21:15:00
3:35 PM,59.0,-9999,N/A,30.35,10.0,NNW,21.9,27.6,N/A,,Clear,330,2012-12-20 21:35:00
3:55 PM,59.0,-9999,N/A,30.36,10.0,NW,13.8,21.9,N/A,,Clear,320,2012-12-20 21:55:00
4:15 PM,57.2,-9999,N/A,30.37,10.0,NNW,4.6,23.0,N/A,,Clear,330,2012-12-20 22:15:00
4:35 PM,55.4,-9999,N/A,30.38,10.0,NW,15.0,23.0,N/A,,Clear,320,2012-12-20 22:35:00
4:55 PM,55.4,-9999,N/A,30.38,10.0,NW,3.5,19.6,N/A,,Clear,310,2012-12-20 22:55:00
5:15 PM,53.6,-9999,N/A,30.39,10.0,Calm,Calm,-,N/A,,Clear,0,2012-12-20 23:15:00
5:35 PM,51.8,-9999,N/A,30.38,10.0,Calm,Calm,-,N/A,,Clear,0,2012-12-20 23:35:00
5:55 PM,50.0,-29.2,4,30.39,10.0,Calm,Calm,-,N/A,,Clear,0,2012-12-20 23:55:00
6:15 PM,50.0,-22.0,4,30.40,10.0,Calm,Calm,-,N/A,,Clear,0,2012-12-21 00:15:00
6:35 PM,46.4,-13.0,8,30.40,10.0,Calm,Calm,-,N/A,,Clear,0,2012-12-21 00:35:00
6:55 PM,44.6,-2.2,14,30.40,10.0,Calm,Calm,-,N/A,,Clear,0,2012-12-21 00:55:00
7:15 PM,42.8,-0.4,16,30.40,10.0,Calm,Calm,-,N/A,,Clear,0,2012-12-21 01:15:00
7:35 PM,44.6,-5.8,12,30.41,10.0,Calm,Calm,-,N/A,,Clear,0,2012-12-21 01:35:00
7:55 PM,41.0,3.2,21,30.41,10.0,Calm,Calm,-,N/A,,Clear,0,2012-12-21 01:55:00
8:15 PM,42.8,-0.4,16,30.41,10.0,Calm,Calm,-,N/A,,Clear,0,2012-12-21 02:15:00
8:35 PM,42.8,-5.8,13,30.42,10.0,Calm,Calm,-,N/A,,Clear,0,2012-12-21 02:35:00
8:55 PM,42.8,-5.8,13,30.43,10.0,Calm,Calm,-,N/A,,Clear,0,2012-12-21 02:55:00
9:15 PM,37.4,8.6,30,30.44,10.0,Calm,Calm,-,N/A,,Clear,0,2012-12-21 03:15:00
9:35 PM,37.4,10.4,33,30.44,10.0,Calm,Calm,-,N/A,,Clear,0,2012-12-21 03:35:00
9:55 PM,35.6,10.4,35,30.44,10.0,Calm,Calm,-,N/A,,Clear,0,2012-12-21 03:55:00
10:15 PM,35.6,12.2,38,30.45,10.0,Calm,Calm,-,N/A,,Clear,0,2012-12-21 04:15:00
10:35 PM,33.8,14.0,44,30.46,10.0,Calm,Calm,-,N/A,,Clear,0,2012-12-21 04:35:00
10:55 PM,35.6,14.0,41,30.46,10.0,Calm,Calm,-,N/A,,Clear,0,2012-12-21 04:55:00
11:15 PM,33.8,15.8,48,30.47,10.0,Calm,Calm,-,N/A,,Clear,0,2012-12-21 05:15:00
11:35 PM,32.0,15.8,51,30.46,10.0,Calm,Calm,-,N/A,,Clear,0,2012-12-21 05:35:00
11:55 PM,33.8,14.0,44,30.47,10.0,Calm,Calm,-,N/A,,Clear,0,2012-12-21 05:55:00